Location: Stoke Bliss
(52.2667°N, 2.5167°W)
Time: 19:51:21
(UTC+00:00)

SPOT 5 - Pass Details

Date: 03 March 2021
Orbit: 623 x 815 km, 98.2° (Epoch: 16 April)

Event Time Altitude Azimuth Distance (km) Brightness Sun altitude
Exits shadow 20:41:56 21° 23° (NNE) 1,499 4.5 -26.0°
Drops below altitude 10° 20:43:56 10° 3° (N) 2,105 5.5 -26.3°
Sets 20:46:20 0° 353° (N) 2,995 6.5 -26.6°
